ATLAS 5 CENTAUR DEB, 43976

Orbit data source: Space-Track

ATLAS 5 CENTAUR DEB, 43976 is space debris in HEO originally from a launch on Wed, 17 Sep 2014 UTC launched from the Air Force Eastern Test Range (AFETR). Debris objects in space refer to the collection of defunct objects orbiting the Earth. Examples of debris include non-operational satellites, rocket bodies, and fragments generated from explosions, collisions, or faulty payload assembly.

Loading next visibility...
ATLAS 5 CENTAUR DEB details
Identifier
43976, 2014-055AF
Orbit
HEO
Last TLE update2 days ago
Origin
Flag of USULA (US)
ManufacturerUnknown
MissionSpacecraft
Bus & MotorUnknown
MassUnknown
Launch date (UTC)
2014-09-17 (10 years ago)
Launch vehicleUnknown
Launch site
Air Force Eastern Test Range (AFETR)
Object type
Payload
Rocket body
Debris
Shape & HBRUnknown
Radar Cross SectionSmall (<0.1 m²)

Expand to show TLE details & history

TLE from 2 days ago
0 ATLAS 5 CENTAUR DEB
1 43976U 14055AF  25043.06046164 -.00000018  00000-0  00000-0 0  9995
2 43976  19.5301 197.1425 4848104  69.4032 335.0183  1.83496576 43203
Epoch: 2025-02-12T01:27Z
Definitive object data (Epoch: 2025-02-12T01:27:03.885Z)
Latitude0.00003°
Longitude32.90365°
Altitude12,069.956 km
Speed5.392 km/s
True Right ascension13h 08m 06s
True Declination0° 00' 00"
Sunlit
Object was in daylight at TLE epoch
Visualization TLE readout
Latitude7.16737°
Longitude-167.99987°
Altitude14,870.145 km
Speed4.835 km/s
Apparent Right ascension00h 20m 54s
Apparent Declination-4° 43' 41"
Sunlit
Object is in daylight
Visualization observer readout
Local Sidereal Time21:29:14
Azimuth128.07° SE
Elevation30.457°
Doppler factor1
Orbital elements
Apogee altitude35,470.799 km
Perigee altitude8,142.328 km
Semi-major axis28,184.701 km
Eccentricity0.4848104
Inclination19.5301°
RAAN197.1425°
Arg. of periapsis69.4032°
True anomaly290.53714°
Mean anomaly335.0183°
Eccentric anomaly315.57451°
Mean motion0.45869 °/min
BSTARUnknown
Orbital period784.84 mins
Loading maneuver chart data...

ATLAS 5 CENTAUR DEB Visibility forecast

Observer location: undefined°, undefined

Span
Click to sort rows by Start time (UTC) header in descending order
Start Az.
Max El. time (UTC)
Max El. Az.
Max El.
End time (UTC)
End Az.
125 mins2025-02-13 18:53:28.592Z128.102° SE2025-02-13 18:53:28.592Z128.102° SE26.864°2025-02-13 20:58:28.592Z123.523° SE
219 mins2025-02-14 00:22:28.592Z136.356° SSE2025-02-14 02:36:28.592Z141.477° SSE11.193°2025-02-14 04:01:28.592Z137.268° SSE
|